Time,TemperatureF,DewpointF,PressureIn,WindDirection,WindDirectionDegrees,WindSpeedMPH,WindSpeedGustMPH,Humidity,HourlyPrecipIn,Conditions,Clouds,dailyrainin,SolarRadiationWatts/m^2,SoftwareType,DateUTC
2015-06-03 00:11:00,72.9,-99.9,29.95,NNW,339,0.0,-999.0,0,-99.99,,,0.00,0,weatherlink.com 1.10,2015-06-03 04:11:00,
2015-06-03 00:26:00,72.9,-99.9,29.95,NNW,339,0.0,-999.0,0,-99.99,,,0.00,0,weatherlink.com 1.10,2015-06-03 04:26:00,
2015-06-03 00:41:00,73.0,-99.9,29.95,NNW,339,0.0,-999.0,0,-99.99,,,0.00,0,weatherlink.com 1.10,2015-06-03 04:41:00,
2015-06-03 00:56:00,73.0,-99.9,29.94,NNW,339,0.0,-999.0,0,-99.99,,,0.00,0,weatherlink.com 1.10,2015-06-03 04:56:00,
2015-06-03 01:11:00,73.0,-99.9,29.94,NNW,339,0.0,-999.0,0,-99.99,,,0.00,0,weatherlink.com 1.10,2015-06-03 05:11:00,
2015-06-03 01:26:00,73.0,-99.9,29.94,NNW,339,0.0,-999.0,0,-99.99,,,0.00,0,weatherlink.com 1.10,2015-06-03 05:26:00,
2015-06-03 01:41:00,73.0,-99.9,29.94,NNW,339,0.0,-999.0,0,-99.99,,,0.01,0,weatherlink.com 1.10,2015-06-03 05:41:00,
2015-06-03 01:56:00,72.9,-99.9,29.93,NNW,339,0.0,-999.0,0,-99.99,,,0.01,0,weatherlink.com 1.10,2015-06-03 05:56:00,
2015-06-03 02:11:00,72.9,-99.9,29.93,NNW,339,0.0,-999.0,0,-99.99,,,0.01,0,weatherlink.com 1.10,2015-06-03 06:11:00,
2015-06-03 02:26:00,72.7,-99.9,29.94,SSW,198,2.0,-999.0,0,-99.99,,,0.02,0,weatherlink.com 1.10,2015-06-03 06:26:00,
2015-06-03 02:41:00,72.6,-99.9,29.94,SSW,201,0.0,-999.0,0,-99.99,,,0.03,0,weatherlink.com 1.10,2015-06-03 06:41:00,
2015-06-03 02:56:00,72.5,-99.9,29.93,SSW,201,0.0,-999.0,0,-99.99,,,0.03,0,weatherlink.com 1.10,2015-06-03 06:56:00,
2015-06-03 03:11:00,72.4,-99.9,29.93,SSW,201,0.0,-999.0,0,-99.99,,,0.03,0,weatherlink.com 1.10,2015-06-03 07:11:00,
2015-06-03 03:27:00,72.3,-99.9,29.92,SSW,201,0.0,-999.0,0,-99.99,,,0.03,0,weatherlink.com 1.10,2015-06-03 07:27:00,
2015-06-03 03:42:00,71.9,-99.9,29.92,SSW,201,0.0,-999.0,0,-99.99,,,0.04,0,weatherlink.com 1.10,2015-06-03 07:42:00,
2015-06-03 03:57:00,71.6,-99.9,29.92,SSW,201,0.0,-999.0,0,-99.99,,,0.04,0,weatherlink.com 1.10,2015-06-03 07:57:00,
2015-06-03 04:12:00,71.3,-99.9,29.93,SSW,201,0.0,-999.0,0,-99.99,,,0.04,0,weatherlink.com 1.10,2015-06-03 08:12:00,
2015-06-03 04:27:00,71.2,-99.9,29.93,SSW,201,0.0,-999.0,0,-99.99,,,0.04,0,weatherlink.com 1.10,2015-06-03 08:27:00,
2015-06-03 04:42:00,71.2,-99.9,29.93,SSW,201,0.0,-999.0,0,-99.99,,,0.04,0,weatherlink.com 1.10,2015-06-03 08:42:00,
2015-06-03 04:57:00,71.2,-99.9,29.93,SSW,201,0.0,-999.0,0,-99.99,,,0.04,0,weatherlink.com 1.10,2015-06-03 08:57:00,
2015-06-03 05:12:00,71.2,-99.9,29.93,SSW,201,0.0,-999.0,0,-99.99,,,0.04,0,weatherlink.com 1.10,2015-06-03 09:12:00,
2015-06-03 05:27:00,71.2,-99.9,29.93,SSW,201,0.0,-999.0,0,-99.99,,,0.04,0,weatherlink.com 1.10,2015-06-03 09:27:00,
2015-06-03 05:42:00,71.1,-99.9,29.92,SSW,201,0.0,-999.0,0,-99.99,,,0.04,0,weatherlink.com 1.10,2015-06-03 09:42:00,
2015-06-03 05:57:00,71.1,-99.9,29.92,WNW,302,0.0,-999.0,0,-99.99,,,0.04,0,weatherlink.com 1.10,2015-06-03 09:57:00,
2015-06-03 06:12:00,71.1,-99.9,29.93,WNW,302,0.0,-999.0,0,-99.99,,,0.04,0,weatherlink.com 1.10,2015-06-03 10:12:00,
2015-06-03 06:27:00,71.1,-99.9,29.93,WNW,302,0.0,-999.0,0,-99.99,,,0.04,0,weatherlink.com 1.10,2015-06-03 10:27:00,
2015-06-03 06:42:00,70.9,-99.9,29.93,WNW,302,0.0,-999.0,0,-99.99,,,0.04,7,weatherlink.com 1.10,2015-06-03 10:42:00,
2015-06-03 06:58:00,70.8,-99.9,29.93,WNW,302,0.0,-999.0,0,-99.99,,,0.04,9,weatherlink.com 1.10,2015-06-03 10:58:00,
2015-06-03 07:13:00,70.6,-99.9,29.93,WNW,302,0.0,-999.0,0,-99.99,,,0.04,12,weatherlink.com 1.10,2015-06-03 11:13:00,
2015-06-03 07:28:00,70.2,-99.9,29.93,WNW,302,0.0,-999.0,0,-99.99,,,0.04,28,weatherlink.com 1.10,2015-06-03 11:28:00,
2015-06-03 07:43:00,70.1,-99.9,29.93,North,360,1.0,-999.0,0,-99.99,,,0.04,33,weatherlink.com 1.10,2015-06-03 11:43:00,
2015-06-03 07:58:00,70.3,-99.9,29.93,North,360,4.0,-999.0,0,-99.99,,,0.04,47,weatherlink.com 1.10,2015-06-03 11:58:00,
2015-06-03 08:13:00,70.5,-99.9,29.93,North,360,0.0,-999.0,0,-99.99,,,0.04,58,weatherlink.com 1.10,2015-06-03 12:13:00,
2015-06-03 08:28:00,70.7,-99.9,29.94,North,360,2.0,-999.0,0,-99.99,,,0.04,79,weatherlink.com 1.10,2015-06-03 12:28:00,
2015-06-03 08:43:00,71.1,-99.9,29.94,North,360,0.0,-999.0,0,-99.99,,,0.04,160,weatherlink.com 1.10,2015-06-03 12:43:00,
2015-06-03 08:58:00,71.6,-99.9,29.94,North,360,3.0,-999.0,0,-99.99,,,0.04,181,weatherlink.com 1.10,2015-06-03 12:58:00,
2015-06-03 09:13:00,72.2,-99.9,29.93,NNE,32,2.0,-999.0,0,-99.99,,,0.04,188,weatherlink.com 1.10,2015-06-03 13:13:00,
2015-06-03 09:29:00,73.1,-99.9,29.93,NNE,24,4.0,-999.0,0,-99.99,,,0.04,385,weatherlink.com 1.10,2015-06-03 13:29:00,
2015-06-03 09:44:00,73.8,-99.9,29.94,NNE,24,0.0,-999.0,0,-99.99,,,0.04,339,weatherlink.com 1.10,2015-06-03 13:44:00,
2015-06-03 09:58:00,74.6,-99.9,29.94,NNE,24,2.0,-999.0,0,-99.99,,,0.04,260,weatherlink.com 1.10,2015-06-03 13:58:00,
2015-06-03 10:14:00,75.3,-99.9,29.94,NNE,24,1.0,-999.0,0,-99.99,,,0.04,279,weatherlink.com 1.10,2015-06-03 14:14:00,
2015-06-03 10:29:00,75.9,-99.9,29.95,NNE,24,1.0,-999.0,0,-99.99,,,0.04,239,weatherlink.com 1.10,2015-06-03 14:29:00,
2015-06-03 10:44:00,76.5,-99.9,29.95,NNE,24,0.0,-999.0,0,-99.99,,,0.04,232,weatherlink.com 1.10,2015-06-03 14:44:00,
2015-06-03 10:59:00,77.0,-99.9,29.95,NE,36,3.0,-999.0,0,-99.99,,,0.04,554,weatherlink.com 1.10,2015-06-03 14:59:00,
2015-06-03 11:14:00,78.1,-99.9,29.95,NNE,22,3.0,-999.0,0,-99.99,,,0.04,863,weatherlink.com 1.10,2015-06-03 15:14:00,
2015-06-03 11:29:00,79.2,-99.9,29.94,NNE,18,3.0,-999.0,0,-99.99,,,0.04,863,weatherlink.com 1.10,2015-06-03 15:29:00,
2015-06-03 11:44:00,79.8,-99.9,29.95,ENE,71,0.0,-999.0,0,-99.99,,,0.05,814,weatherlink.com 1.10,2015-06-03 15:44:00,
2015-06-03 11:59:00,80.2,-99.9,29.95,NNE,15,6.0,-999.0,0,-99.99,,,0.05,596,weatherlink.com 1.10,2015-06-03 15:59:00,
2015-06-03 12:14:00,80.6,-99.9,29.94,NNW,348,3.0,-999.0,0,-99.99,,,0.05,1190,weatherlink.com 1.10,2015-06-03 16:14:00,
2015-06-03 12:29:00,81.1,-99.9,29.94,SE,124,0.0,-999.0,0,-99.99,,,0.05,499,weatherlink.com 1.10,2015-06-03 16:29:00,
2015-06-03 12:44:00,81.5,-99.9,29.94,SE,129,0.0,-999.0,0,-99.99,,,0.05,534,weatherlink.com 1.10,2015-06-03 16:44:00,
2015-06-03 12:59:00,81.8,-99.9,29.94,ENE,60,3.0,-999.0,0,-99.99,,,0.05,410,weatherlink.com 1.10,2015-06-03 16:59:00,
2015-06-03 13:14:00,81.6,-99.9,29.93,SSE,149,0.0,-999.0,0,-99.99,,,0.05,411,weatherlink.com 1.10,2015-06-03 17:14:00,
2015-06-03 13:30:00,81.5,-99.9,29.93,ESE,111,2.0,-999.0,0,-99.99,,,0.05,394,weatherlink.com 1.10,2015-06-03 17:30:00,
2015-06-03 13:45:00,81.3,-99.9,29.93,ESE,108,5.0,-999.0,0,-99.99,,,0.05,311,weatherlink.com 1.10,2015-06-03 17:45:00,
2015-06-03 14:00:00,81.0,-99.9,29.92,NE,37,4.0,-999.0,0,-99.99,,,0.05,292,weatherlink.com 1.10,2015-06-03 18:00:00,
2015-06-03 14:15:00,80.8,-99.9,29.92,ENE,71,4.0,-999.0,0,-99.99,,,0.05,211,weatherlink.com 1.10,2015-06-03 18:15:00,
2015-06-03 14:30:00,80.1,-99.9,29.92,ENE,78,5.0,-999.0,0,-99.99,,,0.05,192,weatherlink.com 1.10,2015-06-03 18:30:00,
2015-06-03 14:45:00,79.7,-99.9,29.92,ENE,66,0.0,-999.0,0,-99.99,,,0.05,214,weatherlink.com 1.10,2015-06-03 18:45:00,
2015-06-03 15:00:00,79.5,-99.9,29.91,ENE,74,2.0,-999.0,0,-99.99,,,0.05,232,weatherlink.com 1.10,2015-06-03 19:00:00,
2015-06-03 15:15:00,79.6,-99.9,29.91,NE,46,4.0,-999.0,0,-99.99,,,0.05,204,weatherlink.com 1.10,2015-06-03 19:15:00,
2015-06-03 15:30:00,79.2,-99.9,29.91,East,88,6.0,-999.0,0,-99.99,,,0.05,195,weatherlink.com 1.10,2015-06-03 19:30:00,
2015-06-03 15:45:00,78.9,-99.9,29.90,East,90,2.0,-999.0,0,-99.99,,,0.05,248,weatherlink.com 1.10,2015-06-03 19:45:00,
2015-06-03 16:00:00,79.1,-99.9,29.90,NE,41,5.0,-999.0,0,-99.99,,,0.05,330,weatherlink.com 1.10,2015-06-03 20:00:00,
2015-06-03 16:15:00,79.4,-99.9,29.89,SE,142,5.0,-999.0,0,-99.99,,,0.05,248,weatherlink.com 1.10,2015-06-03 20:15:00,
2015-06-03 16:30:00,79.4,-99.9,29.89,East,90,4.0,-999.0,0,-99.99,,,0.05,381,weatherlink.com 1.10,2015-06-03 20:30:00,
2015-06-03 16:45:00,79.5,-99.9,29.88,ENE,70,5.0,-999.0,0,-99.99,,,0.05,278,weatherlink.com 1.10,2015-06-03 20:45:00,
2015-06-03 17:01:00,79.7,-99.9,29.88,NE,55,5.0,-999.0,0,-99.99,,,0.05,274,weatherlink.com 1.10,2015-06-03 21:01:00,
2015-06-03 17:16:00,80.2,-99.9,29.87,ENE,67,3.0,-999.0,0,-99.99,,,0.05,125,weatherlink.com 1.10,2015-06-03 21:16:00,
2015-06-03 17:31:00,80.3,-99.9,29.87,SSE,155,1.0,-999.0,0,-99.99,,,0.05,209,weatherlink.com 1.10,2015-06-03 21:31:00,
2015-06-03 17:46:00,79.9,-99.9,29.87,NE,39,6.0,-999.0,0,-99.99,,,0.05,501,weatherlink.com 1.10,2015-06-03 21:46:00,
2015-06-03 18:01:00,79.9,-99.9,29.87,ENE,58,2.0,-999.0,0,-99.99,,,0.05,121,weatherlink.com 1.10,2015-06-03 22:01:00,
2015-06-03 18:16:00,79.6,-99.9,29.87,ENE,73,0.0,-999.0,0,-99.99,,,0.05,120,weatherlink.com 1.10,2015-06-03 22:16:00,
2015-06-03 18:31:00,79.2,-99.9,29.87,ENE,77,2.0,-999.0,0,-99.99,,,0.05,65,weatherlink.com 1.10,2015-06-03 22:31:00,
2015-06-03 18:46:00,78.8,-99.9,29.86,North,5,2.0,-999.0,0,-99.99,,,0.05,232,weatherlink.com 1.10,2015-06-03 22:46:00,
2015-06-03 19:01:00,78.9,-99.9,29.87,SSE,158,4.0,-999.0,0,-99.99,,,0.05,190,weatherlink.com 1.10,2015-06-03 23:01:00,
2015-06-03 19:16:00,79.0,-99.9,29.88,SSE,153,4.0,-999.0,0,-99.99,,,0.05,107,weatherlink.com 1.10,2015-06-03 23:16:00,
2015-06-03 19:31:00,78.7,-99.9,29.88,East,89,3.0,-999.0,0,-99.99,,,0.00,30,weatherlink.com 1.10,2015-06-03 23:31:00,
2015-06-03 19:46:00,78.2,-99.9,29.88,ENE,64,1.0,-999.0,0,-99.99,,,0.00,25,weatherlink.com 1.10,2015-06-03 23:46:00,
2015-06-03 20:01:00,77.5,-99.9,29.89,ESE,112,5.0,-999.0,0,-99.99,,,0.00,12,weatherlink.com 1.10,2015-06-04 00:01:00,
2015-06-03 20:17:00,77.0,-99.9,29.89,SE,142,4.0,-999.0,0,-99.99,,,0.00,0,weatherlink.com 1.10,2015-06-04 00:17:00,